EW5523 Weather Reports


time (UTC)temp
F
wind
direction
speed
knots
gust
knots
rain 1hr
in
rain 24hr
in
rain mn
in
humidity
%
barometer
mb
20260510061556 42 325 0.0 8.7 0.00 0.00 0.00 45 1024.1
20260510060055 41 286 2.6 11.3 0.00 0.00 0.00 48 1024.1
20260510054554 41 293 0.0 7.0 0.00 0.00 0.00 47 1024.2
20260510053054 41 328 0.9 9.6 0.00 0.00 0.00 48 1024.3
20260510051556 40 316 0.0 7.8 0.00 0.00 0.00 46 1024.2
20260510050051 40 302 1.7 11.3 0.00 0.00 0.00 45 1024.2
20260510044549 40 283 0.0 7.0 0.00 0.00 0.00 48 1024.1
20260510043050 39 8 0.0 7.0 0.00 0.00 0.00 48 1024.1
20260510041548 40 290 1.7 10.4 0.00 0.00 0.00 46 1024.1
20260510040048 39 349 0.0 7.8 0.00 0.00 0.00 49 1023.9
20260510034606 39 18 0.0 6.1 0.00 0.00 0.00 50 1023.9
20260510033050 38 354 0.0 5.2 0.00 0.00 0.00 50 1023.8
20260510031543 37 4 0.0 5.2 0.00 0.00 0.00 53 1023.8
20260510030041 37 322 0.0 6.1 0.00 0.00 0.00 56 1023.7
20260510024541 36 279 0.0 6.1 0.00 0.00 0.00 58 1023.7
20260510023039 36 354 0.0 6.1 0.00 0.00 0.00 61 1023.5
20260510021536 35 34 0.0 7.0 0.00 0.00 0.00 63 1023.5
20260510020036 35 359 0.0 7.0 0.00 0.00 0.00 64 1023.3
20260510014533 34 330 0.0 6.1 0.00 0.00 0.00 65 1023.0
20260510013033 34 324 0.0 4.3 0.00 0.00 0.00 66 1022.8
20260510011529 34 27 0.0 4.3 0.00 0.00 0.00 68 1022.6
20260510010027 34 317 0.0 3.5 0.00 0.00 0.00 68 1022.6
20260510004525 34 323 0.0 5.2 0.00 0.00 0.00 68 1022.4
20260510003023 34 326 0.0 7.0 0.00 0.00 0.00 69 1022.1
20260510001520 35 316 0.0 4.3 0.00 0.00 0.00 70 1021.8
20260510000020 35 10 0.0 8.7 0.00 0.00 0.00 72 1021.6
20260509234515 35 313 0.0 2.6 0.00 0.00 0.00 74 1021.4
20260509233018 35 312 0.0 3.5 0.00 0.00 0.00 75 1021.2
20260509231511 36 359 0.0 6.1 0.00 0.00 0.00 77 1021.2
20260509230009 36 326 0.0 4.3 0.00 0.00 0.00 79 1021.1
20260509224506 36 323 0.0 2.6 0.00 0.00 0.00 79 1021.0
20260509223004 36 278 0.0 7.0 0.00 0.00 0.00 78 1020.7
20260509221626 37 52 0.0 3.5 0.00 0.00 0.00 77 1020.6
20260509220100 37 339 0.0 4.3 0.00 0.00 0.00 75 1020.3
20260509214603 38 359 1.7 13.0 0.00 0.00 0.00 74 1020.2
20260509213152 38 359 0.0 6.1 0.00 0.00 0.00 72 1020.0
20260509211551 39 339 0.0 6.1 0.00 0.00 0.00 71 1019.8
20260509210049 39 354 0.0 5.2 0.00 0.00 0.00 71 1019.6
20260509204544 40 354 0.0 6.1 0.00 0.00 0.00 72 1019.4
20260509203043 40 326 0.0 2.6 0.00 0.00 0.00 73 1019.3
20260509201537 41 40 0.0 8.7 0.00 0.00 0.00 74 1019.1
20260509200041 41 339 0.0 7.8 0.00 0.00 0.00 73 1019.0
20260509194545 42 308 3.5 8.7 0.00 0.00 0.00 70 1018.6
20260509193036 43 320 0.9 8.7 0.00 0.00 0.00 68 1018.3
20260509191529 43 301 0.9 9.6 0.00 0.00 0.00 66 1018.1
20260509190026 44 287 0.9 14.8 0.00 0.00 0.00 64 1018.0
20260509184524 44 341 0.0 9.6 0.00 0.00 0.00 60 1017.7
20260509183022 45 343 2.6 14.8 0.00 0.00 0.00 57 1017.6
20260509181521 46 8 0.0 7.0 0.00 0.00 0.00 57 1017.5
20260509180020 46 27 0.0 7.0 0.00 0.01 0.00 55 1017.5
20260509174537 47 310 2.6 8.7 0.00 0.01 0.00 54 1017.2
20260509173019 47 343 0.0 7.0 0.00 0.01 0.00 51 1017.1
20260509171517 48 303 1.7 11.3 0.00 0.01 0.00 48 1017.1
20260509170016 48 308 0.0 5.2 0.00 0.01 0.00 45 1016.9
20260509164513 48 322 0.0 1.7 0.00 0.01 0.00 45 1016.7
20260509163013 49 320 0.0 8.7 0.00 0.01 0.00 43 1016.4
20260509161525 50 322 0.9 6.1 0.00 0.01 0.00 41 1016.4
20260509160010 51 289 0.0 7.0 0.00 0.02 0.00 39 1016.4
20260509154510 51 322 0.0 4.3 0.00 0.02 0.00 39 1016.2
20260509153014 52 315 0.9 8.7 0.00 0.02 0.00 39 1016.2
20260509151511 52 318 0.0 6.1 0.00 0.02 0.00 40 1016.2
20260509150021 52 317 0.0 7.0 0.00 0.02 0.00 40 1016.2
20260509144508 51 296 0.9 7.0 0.00 0.02 0.00 39 1016.3
20260509143008 52 280 0.9 9.6 0.00 0.02 0.00 36 1016.2
20260509141506 53 347 1.7 8.7 0.00 0.02 0.00 37 1016.2
20260509140006 53 27 0.0 7.0 0.00 0.02 0.00 39 1016.2
20260509134506 53 4 0.0 6.1 0.00 0.02 0.00 40 1016.3
20260509133007 52 22 0.0 8.7 0.00 0.02 0.00 39 1016.3
20260509131504 53 326 0.9 10.4 0.00 0.02 0.00 38 1016.3
20260509130004 53 337 0.9 10.4 0.00 0.02 0.00 39 1016.4
20260509124503 53 295 0.9 7.8 0.00 0.02 0.00 40 1016.4
20260509123003 53 301 0.0 7.0 0.00 0.02 0.00 41 1016.4
20260509121502 52 337 0.9 11.3 0.00 0.02 0.00 42 1016.3
20260509120001 51 332 0.9 10.4 0.00 0.02 0.00 42 1016.4
20260509114600 51 310 1.7 10.4 0.00 0.02 0.00 41 1016.2
20260509113106 53 299 2.6 17.4 0.00 0.02 0.00 40 1015.7
20260509111557 52 273 1.7 12.2 0.00 0.02 0.00 43 1015.9
20260509110057 51 45 2.6 11.3 0.00 0.02 0.00 45 1016.0
20260509104556 50 48 0.0 8.7 0.00 0.02 0.00 46 1016.0
20260509103102 49 320 0.9 17.4 0.00 0.02 0.00 47 1015.8
20260509101554 50 342 1.7 11.3 0.00 0.02 0.00 47 1015.9
20260509100056 49 327 2.6 13.9 0.00 0.02 0.00 47 1015.8
20260509094550 49 33 3.5 19.1 0.00 0.02 0.00 49 1015.7
20260509093048 49 359 4.3 13.0 0.00 0.02 0.00 49 1015.5
20260509091546 48 47 3.5 11.3 0.00 0.02 0.00 55 1015.5
20260509090053 47 62 0.0 12.2 0.00 0.02 0.00 59 1015.2
20260509084543 48 8 4.3 15.6 0.00 0.02 0.00 53 1015.0
20260509083046 48 60 7.8 18.2 0.00 0.02 0.00 54 1014.8
20260509081541 47 77 5.2 16.5 0.00 0.02 0.00 54 1014.5
20260509080041 47 310 0.0 13.0 0.00 0.02 0.00 56 1014.2
20260509074539 46 334 3.5 16.5 0.00 0.02 0.00 59 1014.0
20260509073036 46 306 4.3 17.4 0.00 0.02 0.00 59 1013.7
20260509071534 44 39 1.7 13.9 0.00 0.02 0.00 66 1013.7
20260509070031 45 37 4.3 14.8 0.00 0.02 0.00 63 1013.4
20260509064530 45 305 2.6 13.9 0.00 0.02 0.00 64 1013.2
20260509063030 44 316 0.0 13.0 0.00 0.02 0.00 67 1013.1